| time (UTC) | temp F | wind direction | speed MPH | gust MPH | rain 1hr in | rain 24hr in | rain mn in | humidity % | barometer mb |
| 20260505003006 | 68 | 163 | 2.0 | 8.0 | 0.00 | 0.00 | 0.00 | 58 | 1005.2 |
| 20260505001508 | 68 | 191 | 3.0 | 7.0 | 0.00 | 0.00 | 0.00 | 56 | 1005.2 |
| 20260505000503 | 69 | 155 | 4.0 | 8.0 | 0.00 | 0.00 | 0.00 | 56 | 1005.2 |
| 20260505000013 | 69 | 145 | 3.0 | 7.0 | 0.00 | 0.00 | 0.00 | 56 | 1005.2 |
| 20260504235507 | 69 | 146 | 4.0 | 10.0 | 0.00 | 0.00 | 0.00 | 55 | 1005.2 |
| 20260504234515 | 70 | 200 | 4.0 | 14.0 | 0.00 | 0.00 | 0.00 | 55 | 1005.3 |
| 20260504234008 | 70 | 205 | 4.0 | 10.0 | 0.00 | 0.00 | 0.00 | 56 | 1005.4 |
| 20260504233507 | 70 | 202 | 3.0 | 11.0 | 0.00 | 0.00 | 0.00 | 56 | 1005.5 |
| 20260504233019 | 70 | 185 | 4.0 | 11.0 | 0.00 | 0.00 | 0.00 | 56 | 1005.4 |
| 20260504232507 | 69 | 157 | 3.0 | 7.0 | 0.00 | 0.00 | 0.00 | 56 | 1005.4 |
| 20260504232003 | 69 | 163 | 4.0 | 7.0 | 0.00 | 0.00 | 0.00 | 56 | 1005.5 |
| 20260504231506 | 69 | 199 | 3.0 | 15.0 | 0.00 | 0.00 | 0.00 | 56 | 1005.6 |
| 20260504231004 | 69 | 149 | 3.0 | 15.0 | 0.00 | 0.00 | 0.00 | 56 | 1005.5 |
| 20260504230012 | 70 | 213 | 4.0 | 10.0 | 0.00 | 0.00 | 0.00 | 55 | 1005.6 |
| 20260504225008 | 69 | 219 | 5.0 | 11.0 | 0.00 | 0.00 | 0.00 | 55 | 1005.7 |
| 20260504224518 | 69 | 182 | 5.0 | 16.0 | 0.00 | 0.00 | 0.00 | 56 | 1005.7 |
| 20260504224007 | 69 | 165 | 4.0 | 16.0 | 0.00 | 0.00 | 0.00 | 56 | 1005.8 |
| 20260504223506 | 69 | 148 | 7.0 | 15.0 | 0.00 | 0.00 | 0.00 | 55 | 1005.8 |
| 20260504223021 | 69 | 140 | 7.0 | 15.0 | 0.00 | 0.00 | 0.00 | 55 | 1005.8 |
| 20260504221003 | 70 | 161 | 6.0 | 12.0 | 0.00 | 0.00 | 0.00 | 53 | 1006.0 |
| 20260504220504 | 70 | 184 | 6.0 | 17.0 | 0.00 | 0.00 | 0.00 | 52 | 1005.9 |
| 20260504220010 | 70 | 184 | 6.0 | 17.0 | 0.00 | 0.00 | 0.00 | 52 | 1005.9 |
| 20260504215506 | 71 | 191 | 7.0 | 17.0 | 0.00 | 0.00 | 0.00 | 1005.9 | |
| 20260504214514 | 72 | 213 | 7.0 | 11.0 | 0.00 | 0.00 | 0.00 | 49 | 1005.7 |
| 20260504213506 | 72 | 221 | 5.0 | 18.0 | 0.00 | 0.00 | 0.00 | 49 | 1005.9 |
| 20260504213020 | 72 | 176 | 7.0 | 18.0 | 0.00 | 0.00 | 0.00 | 49 | 1005.8 |
| 20260504210508 | 73 | 182 | 7.0 | 16.0 | 0.00 | 0.00 | 0.00 | 47 | 1006.1 |
| 20260504210008 | 73 | 98 | 5.0 | 19.0 | 0.00 | 0.00 | 0.00 | 49 | 1006.0 |
| 20260504205506 | 72 | 190 | 9.0 | 22.0 | 0.00 | 0.00 | 0.00 | 49 | 1005.9 |
| 20260504204514 | 71 | 63 | 4.0 | 20.0 | 0.00 | 0.00 | 0.00 | 51 | 1006.0 |
| 20260504203508 | 72 | 193 | 7.0 | 17.0 | 0.00 | 0.00 | 0.00 | 53 | 1006.1 |
| 20260504203018 | 72 | 199 | 9.0 | 22.0 | 0.00 | 0.00 | 0.00 | 51 | 1006.0 |
| 20260504200509 | 71 | 184 | 7.0 | 17.0 | 0.00 | 0.00 | 0.00 | 53 | 1006.5 |
| 20260504200036 | 72 | 204 | 5.0 | 18.0 | 0.00 | 0.00 | 0.00 | 53 | 1006.5 |
| 20260504194512 | 72 | 117 | 7.0 | 20.0 | 0.00 | 0.00 | 0.00 | 52 | 1006.9 |
| 20260504194009 | 72 | 189 | 8.0 | 24.0 | 0.00 | 0.00 | 0.00 | 52 | 1006.9 |
| 20260504193505 | 72 | 148 | 5.0 | 33.0 | 0.00 | 0.00 | 0.00 | 50 | 1006.8 |
| 20260504193016 | 72 | 203 | 11.0 | 30.0 | 0.00 | 0.00 | 0.00 | 50 | 1006.9 |
| 20260504192007 | 71 | 176 | 9.0 | 20.0 | 0.00 | 0.00 | 0.00 | 51 | 1006.6 |
| 20260504191536 | 72 | 210 | 10.0 | 19.0 | 0.00 | 0.00 | 0.00 | 50 | 1006.8 |
| 20260504191009 | 73 | 159 | 6.0 | 17.0 | 0.00 | 0.00 | 0.00 | 51 | 1006.8 |
| 20260504190024 | 74 | 167 | 8.0 | 16.0 | 0.00 | 0.00 | 0.00 | 50 | 1006.6 |
| 20260504185511 | 74 | 169 | 5.0 | 15.0 | 0.00 | 0.00 | 0.00 | 51 | 1006.5 |
| 20260504183504 | 73 | 159 | 6.0 | 14.0 | 0.00 | 0.00 | 0.00 | 51 | 1006.7 |
| 20260504183033 | 73 | 196 | 7.0 | 14.0 | 0.00 | 0.00 | 0.00 | 51 | 1006.6 |
| 20260504182007 | 73 | 207 | 4.0 | 21.0 | 0.00 | 0.00 | 0.00 | 52 | 1006.7 |
| 20260504181523 | 72 | 194 | 7.0 | 21.0 | 0.00 | 0.00 | 0.00 | 52 | 1006.6 |
| 20260504181009 | 72 | 209 | 6.0 | 13.0 | 0.00 | 0.00 | 0.00 | 55 | 1006.6 |
| 20260504180511 | 72 | 199 | 5.0 | 14.0 | 0.00 | 0.00 | 0.00 | 55 | 1006.8 |
| 20260504180025 | 71 | 297 | 3.0 | 18.0 | 0.00 | 0.00 | 0.00 | 55 | 1006.7 |
| 20260504175008 | 72 | 200 | 5.0 | 16.0 | 0.00 | 0.00 | 0.00 | 53 | 1006.8 |
| 20260504174525 | 72 | 236 | 5.0 | 21.0 | 0.00 | 0.00 | 0.00 | 55 | 1006.9 |
| 20260504172509 | 70 | 135 | 5.0 | 12.0 | 0.00 | 0.00 | 0.00 | 53 | 1007.1 |
| 20260504172004 | 70 | 223 | 5.0 | 12.0 | 0.00 | 0.00 | 0.00 | 55 | 1007.1 |
| 20260504171518 | 70 | 185 | 7.0 | 12.0 | 0.00 | 0.00 | 0.00 | 56 | 1007.2 |
| 20260504171015 | 70 | 306 | 3.0 | 15.0 | 0.00 | 0.00 | 0.00 | 55 | 1007.2 |
| 20260504170510 | 69 | 200 | 6.0 | 15.0 | 0.00 | 0.00 | 0.00 | 56 | 1007.3 |
| 20260504151006 | 63 | 213 | 6.0 | 14.0 | 0.00 | 0.00 | 0.00 | 60 | 1008.3 |
| 20260504150511 | 63 | 225 | 7.0 | 14.0 | 0.00 | 0.00 | 0.00 | 62 | 1008.5 |
| 20260504141006 | 60 | 206 | 7.0 | 12.0 | 0.00 | 0.00 | 0.00 | 61 | 1008.5 |
| 20260504140504 | 60 | 222 | 5.0 | 12.0 | 0.00 | 0.00 | 0.00 | 63 | 1008.5 |
| 20260504130507 | 57 | 170 | 4.0 | 8.0 | 0.00 | 0.00 | 0.00 | 65 | 1009.1 |
| 20260504110503 | 43 | 188 | 0.0 | 2.0 | 0.00 | 0.00 | 0.00 | 82 | 1008.9 |
| 20260504100507 | 45 | 167 | 1.0 | 2.0 | 0.00 | 0.00 | 0.00 | 77 | 1009.2 |
| 20260504081525 | 48 | 153 | 1.0 | 4.0 | 0.00 | 0.00 | 0.00 | 72 | 1010.1 |
| 20260504081011 | 48 | 147 | 2.0 | 5.0 | 0.00 | 0.00 | 0.00 | 72 | 1010.0 |
| 20260504080510 | 48 | 184 | 2.0 | 5.0 | 0.00 | 0.00 | 0.00 | 72 | 1009.9 |
| 20260504050505 | 50 | 155 | 2.0 | 6.0 | 0.00 | 0.00 | 0.00 | 68 | 1011.9 |
| 20260504050023 | 50 | 177 | 2.0 | 7.0 | 0.00 | 0.00 | 0.00 | 68 | 1011.8 |
| 20260504045507 | 50 | 185 | 2.0 | 7.0 | 0.00 | 0.00 | 0.00 | 68 | 1011.9 |
| 20260504045008 | 50 | 165 | 2.0 | 7.0 | 0.00 | 0.00 | 0.00 | 68 | 1011.9 |
| 20260504044518 | 50 | 138 | 2.0 | 6.0 | 0.00 | 0.00 | 0.00 | 68 | 1011.9 |
| 20260504044006 | 50 | 160 | 2.0 | 6.0 | 0.00 | 0.00 | 0.00 | 69 | 1012.0 |
| 20260504043504 | 50 | 163 | 1.0 | 5.0 | 0.00 | 0.00 | 0.00 | 69 | 1012.0 |
| 20260504043012 | 50 | 195 | 2.0 | 6.0 | 0.00 | 0.00 | 0.00 | 69 | 1012.0 |
| 20260504042506 | 50 | 161 | 1.0 | 7.0 | 0.00 | 0.00 | 0.00 | 69 | 1012.1 |
| 20260504042006 | 50 | 175 | 1.0 | 7.0 | 0.00 | 0.00 | 0.00 | 70 | 1012.1 |
| 20260504041516 | 50 | 140 | 3.0 | 8.0 | 0.00 | 0.00 | 0.00 | 70 | 1012.1 |
| 20260504041006 | 50 | 136 | 3.0 | 8.0 | 0.00 | 0.00 | 0.00 | 70 | 1012.2 |
| 20260504040508 | 50 | 160 | 2.0 | 7.0 | 0.00 | 0.00 | 0.00 | 71 | 1012.2 |
| 20260504040022 | 50 | 134 | 3.0 | 7.0 | 0.00 | 0.00 | 0.00 | 71 | 1012.2 |
| 20260504035507 | 50 | 152 | 4.0 | 8.0 | 0.00 | 0.00 | 0.00 | 71 | 1012.3 |
| 20260504035007 | 49 | 136 | 3.0 | 8.0 | 0.00 | 0.00 | 0.00 | 71 | 1012.4 |
| 20260504034537 | 49 | 134 | 2.0 | 5.0 | 0.00 | 0.00 | 0.00 | 72 | 1012.4 |
| 20260504034007 | 49 | 162 | 1.0 | 5.0 | 0.00 | 0.00 | 0.00 | 73 | 1012.5 |
| 20260504033503 | 49 | 190 | 1.0 | 4.0 | 0.00 | 0.00 | 0.00 | 73 | 1012.6 |
| 20260504033009 | 49 | 178 | 1.0 | 5.0 | 0.00 | 0.00 | 0.00 | 74 | 1012.6 |
| 20260504032504 | 49 | 138 | 1.0 | 5.0 | 0.00 | 0.00 | 0.00 | 75 | 1012.6 |
| 20260504032004 | 48 | 146 | 2.0 | 3.0 | 0.00 | 0.00 | 0.00 | 76 | 1012.6 |
| 20260504031517 | 48 | 150 | 1.0 | 4.0 | 0.00 | 0.00 | 0.00 | 76 | 1012.7 |
| 20260504031004 | 48 | 146 | 2.0 | 4.0 | 0.00 | 0.00 | 0.00 | 77 | 1012.7 |
| 20260504030504 | 48 | 139 | 1.0 | 3.0 | 0.00 | 0.00 | 0.00 | 77 | 1012.7 |
| 20260504030037 | 48 | 213 | 0.0 | 3.0 | 0.00 | 0.00 | 0.00 | 77 | 1012.8 |
| 20260504025512 | 48 | 167 | 1.0 | 5.0 | 0.00 | 0.00 | 0.00 | 77 | 1012.8 |
| 20260504025009 | 48 | 148 | 0.0 | 5.0 | 0.00 | 0.00 | 0.00 | 77 | 1012.9 |
| 20260504024526 | 48 | 143 | 1.0 | 4.0 | 0.00 | 0.00 | 0.00 | 76 | 1012.9 |
| 20260504024012 | 48 | 151 | 2.0 | 4.0 | 0.00 | 0.00 | 0.00 | 76 | 1012.9 |
| 20260504023509 | 48 | 165 | 2.0 | 3.0 | 0.00 | 0.00 | 0.00 | 76 | 1012.9 |
| 20260504023028 | 48 | 175 | 1.0 | 4.0 | 0.00 | 0.00 | 0.00 | 76 | 1012.9 |
| 20260504022509 | 48 | 141 | 2.0 | 6.0 | 0.00 | 0.00 | 0.00 | 75 | 1013.0 |
| 20260504022005 | 48 | 150 | 1.0 | 7.0 | 0.00 | 0.00 | 0.00 | 76 | 1012.9 |
| 20260504021510 | 48 | 74 | 2.0 | 7.0 | 0.00 | 0.00 | 0.00 | 76 | 1013.0 |
| 20260504021004 | 48 | 143 | 1.0 | 4.0 | 0.00 | 0.00 | 0.00 | 76 | 1013.1 |
| 20260504020508 | 48 | 188 | 1.0 | 5.0 | 0.00 | 0.00 | 0.00 | 76 | 1013.2 |
| 20260504020017 | 48 | 161 | 3.0 | 6.0 | 0.00 | 0.00 | 0.00 | 75 | 1013.2 |
| 20260504015504 | 48 | 188 | 0.0 | 6.0 | 0.00 | 0.00 | 0.00 | 74 | 1013.1 |
| 20260504015004 | 48 | 266 | 3.0 | 9.0 | 0.00 | 0.00 | 0.00 | 74 | 1013.1 |
| 20260504014534 | 48 | 127 | 4.0 | 8.0 | 0.00 | 0.00 | 0.00 | 74 | 1012.9 |
| 20260504014012 | 48 | 143 | 4.0 | 8.0 | 0.00 | 0.00 | 0.00 | 75 | 1012.9 |
| 20260504013508 | 48 | 136 | 2.0 | 6.0 | 0.00 | 0.00 | 0.00 | 75 | 1013.0 |
| 20260504013027 | 48 | 121 | 2.0 | 6.0 | 0.00 | 0.00 | 0.00 | 75 | 1013.1 |
| 20260504012508 | 48 | 143 | 2.0 | 6.0 | 0.00 | 0.00 | 0.00 | 76 | 1013.2 |
| 20260504012009 | 48 | 127 | 1.0 | 5.0 | 0.00 | 0.00 | 0.00 | 76 | 1013.3 |
| 20260504011527 | 48 | 126 | 3.0 | 6.0 | 0.00 | 0.00 | 0.00 | 76 | 1013.2 |
| 20260504011009 | 48 | 142 | 2.0 | 6.0 | 0.00 | 0.00 | 0.00 | 76 | 1013.2 |
| 20260504010504 | 48 | 135 | 1.0 | 7.0 | 0.00 | 0.00 | 0.00 | 75 | 1013.2 |
| 20260504010020 | 48 | 154 | 2.0 | 7.0 | 0.00 | 0.00 | 0.00 | 75 | 1013.1 |
| 20260504005505 | 48 | 179 | 0.0 | 4.0 | 0.00 | 0.00 | 0.00 | 75 | 1013.1 |
| 20260504005005 | 48 | 104 | 2.0 | 4.0 | 0.00 | 0.00 | 0.00 | 75 | 1013.0 |
| 20260504004518 | 48 | 140 | 1.0 | 4.0 | 0.00 | 0.00 | 0.00 | 75 | 1013.0 |
| 20260504004004 | 48 | 161 | 0.0 | 3.0 | 0.00 | 0.00 | 0.00 | 75 | 1013.0 |
| 20260504003508 | 48 | 144 | 1.0 | 3.0 | 0.00 | 0.00 | 0.00 | 75 | 1013.1 |